H-2A R/B - Orbit

View from above orbital plane
View from above orbital plane
View from above satellite
View from above satellite

Ground track
Ground track

The orbit data is extracted from the following two-line orbital elements,

1 26899U 01038B   13143.52623681  .00001609  00000-0  74215-3 0  7212
2 26899 028.3927 301.8449 7173863 295.4979 047.7042 02.40801377100092
Epoch (UTC): 23 May 2013 12:37:46
Eccentricity: 0.7173863
inclination: 28.3927°
perigee height: 267 km
apogee height: 34001 km
right ascension of ascending node: 301.8449°
argument of perigee: 295.4979°
revolutions per day: 2.40801377
mean anomaly at epoch: 47.7042°
orbit number at epoch: 10009

The dashed part of the orbit path shows where the satellite is in the earth's shadow,  

Developed and maintained by Chris Peat, Heavens-Above GmbH. Please read the updated FAQ before sending e-mail. Imprint. DLR